Location: Allos
(44.2333°N, 6.6333°E)
Time: 23:19:21
(UTC+00:00)

Cosmos 1821 Rocket - Pass Details

Date: 16 April 2021
Orbit: 946 x 1003 km, 82.9° (Epoch: 16 May)

Event Time Altitude Azimuth Distance (km) Brightness Sun altitude
Rises 02:39:14 0° 348° (NNW) 3,693 7.4 -21.3°
Reaches altitude 10° 02:41:46 10° 346° (NNW) 2,749 6.7 -20.9°
Maximum altitude 02:47:59 64° 267° (W) 1,098 4.0 -20.0°
Enters shadow 02:52:02 23° 193° (SSW) 1,976 5.2 -19.5°
